Location: LDNL
(36.4545°S, 141.6685°E)
Time: 04:27:36
(UTC+11:00)

Vanguard 2 - Pass Details

Date: 17 August 2022
Orbit: 552 x 2934 km, 32.9° (Epoch: 06 October)

Event Time Altitude Azimuth Distance (km) Brightness Sun altitude
Rises 20:40:25 0° 260° (W) 6,447 13.4 -32.5°
Reaches altitude 10° 20:45:14 10° 263° (W) 5,165 12.6 -33.5°
Maximum altitude 20:58:41 54° 334° (NNW) 2,077 9.6 -36.1°
Enters shadow 21:00:09 51° 360° (N) 2,037 9.4 -36.4°
Drops below altitude 10° 21:06:53 10° 49° (NE) 3,232 - -37.7°
Sets 21:09:14 0° 54° (NE) 3,942 - -38.2°
